Time,TemperatureF,DewpointF,PressureIn,WindDirection,WindDirectionDegrees,WindSpeedMPH,WindSpeedGustMPH,Humidity,HourlyPrecipIn,Conditions,Clouds,dailyrainin,SoftwareType,DateUTC
2013-01-16 00:04:00,68.3,68.3,29.95,South,186,4.0,4.0,100,0.00,,,0.00,Wunderground v.1.15,2013-01-16 05:04:00,
2013-01-16 00:06:00,68.3,68.3,29.95,South,172,4.0,4.0,100,0.00,,,0.00,Wunderground v.1.15,2013-01-16 05:06:00,
2013-01-16 00:08:00,68.6,68.6,29.95,South,189,5.0,5.0,100,0.00,,,0.00,Wunderground v.1.15,2013-01-16 05:08:00,
2013-01-16 00:12:00,68.4,68.4,29.95,SSW,200,5.0,5.0,100,0.00,,,0.00,Wunderground v.1.15,2013-01-16 05:12:00,
2013-01-16 00:18:00,68.6,68.6,29.95,SSW,199,5.0,7.0,100,0.00,,,0.00,Wunderground v.1.15,2013-01-16 05:18:00,
2013-01-16 00:24:00,68.6,68.6,29.95,South,174,4.0,10.0,100,0.00,,,0.00,Wunderground v.1.15,2013-01-16 05:24:00,
2013-01-16 00:30:00,68.4,68.4,29.96,South,189,4.0,4.0,100,0.00,,,0.00,Wunderground v.1.15,2013-01-16 05:30:00,
2013-01-16 00:36:00,68.4,68.4,29.96,SSW,199,3.0,4.0,100,0.00,,,0.00,Wunderground v.1.15,2013-01-16 05:36:00,
2013-01-16 00:42:00,68.8,68.8,29.96,SSW,213,3.0,5.0,100,0.00,,,0.00,Wunderground v.1.15,2013-01-16 05:42:00,
2013-01-16 00:48:00,68.8,68.8,29.96,SW,220,3.0,5.0,100,0.00,,,0.00,Wunderground v.1.15,2013-01-16 05:48:00,
2013-01-16 00:54:00,68.6,68.6,29.96,SSW,202,4.0,5.0,100,0.00,,,0.00,Wunderground v.1.15,2013-01-16 05:54:00,
2013-01-16 01:00:00,68.6,68.6,29.95,South,181,2.0,2.0,100,0.00,,,0.00,Wunderground v.1.15,2013-01-16 06:00:00,
2013-01-16 01:06:00,68.4,68.4,29.95,SSW,196,1.0,2.0,100,0.00,,,0.00,Wunderground v.1.15,2013-01-16 06:06:00,
2013-01-16 01:12:00,68.4,68.4,29.95,SSW,212,1.0,2.0,100,0.00,,,0.00,Wunderground v.1.15,2013-01-16 06:12:00,
2013-01-16 01:18:00,68.6,68.6,29.95,SW,232,1.0,5.0,100,0.00,,,0.00,Wunderground v.1.15,2013-01-16 06:18:00,
2013-01-16 01:24:00,68.9,68.9,29.95,WSW,244,1.0,3.0,100,0.00,,,0.00,Wunderground v.1.15,2013-01-16 06:24:00,
2013-01-16 01:30:00,69.1,69.1,29.96,WSW,239,2.0,2.0,100,0.00,,,0.00,Wunderground v.1.15,2013-01-16 06:30:00,
2013-01-16 01:36:00,69.1,69.1,29.96,SW,227,1.0,2.0,100,0.00,,,0.00,Wunderground v.1.15,2013-01-16 06:36:00,
2013-01-16 01:42:00,69.3,69.3,29.96,SW,222,0.0,1.0,100,0.00,,,0.00,Wunderground v.1.15,2013-01-16 06:42:00,
2013-01-16 01:48:00,69.3,69.3,29.96,WSW,241,1.0,1.0,100,0.00,,,0.00,Wunderground v.1.15,2013-01-16 06:48:00,
2013-01-16 01:54:00,69.4,69.4,29.96,SSW,196,1.0,5.0,100,0.00,,,0.00,Wunderground v.1.15,2013-01-16 06:54:00,
2013-01-16 02:00:00,69.3,69.3,29.96,South,179,3.0,3.0,100,0.00,,,0.00,Wunderground v.1.15,2013-01-16 07:00:00,
2013-01-16 02:06:00,69.1,69.1,29.96,South,176,2.0,3.0,100,0.00,,,0.00,Wunderground v.1.15,2013-01-16 07:06:00,
2013-01-16 02:12:00,68.9,68.9,29.96,SSW,205,2.0,6.0,100,0.00,,,0.00,Wunderground v.1.15,2013-01-16 07:12:00,
2013-01-16 02:18:00,69.1,69.1,29.95,South,182,2.0,6.0,100,0.00,,,0.00,Wunderground v.1.15,2013-01-16 07:18:00,
2013-01-16 02:24:00,68.9,68.9,29.95,South,171,3.0,5.0,100,0.00,,,0.00,Wunderground v.1.15,2013-01-16 07:24:00,
2013-01-16 02:30:00,68.9,68.9,29.95,South,184,3.0,3.0,100,0.00,,,0.00,Wunderground v.1.15,2013-01-16 07:30:00,
2013-01-16 02:36:00,68.9,68.9,29.95,SSW,203,2.0,5.0,100,0.00,,,0.00,Wunderground v.1.15,2013-01-16 07:36:00,
2013-01-16 02:42:00,69.1,69.1,29.95,SW,222,3.0,5.0,100,0.00,,,0.00,Wunderground v.1.15,2013-01-16 07:42:00,
2013-01-16 02:48:00,69.1,69.1,29.94,SSW,208,3.0,5.0,100,0.00,,,0.00,Wunderground v.1.15,2013-01-16 07:48:00,
2013-01-16 02:54:00,68.9,68.9,29.94,SW,215,3.0,5.0,100,0.00,,,0.00,Wunderground v.1.15,2013-01-16 07:54:00,
2013-01-16 03:00:00,68.9,68.9,29.94,SSE,161,3.0,5.0,100,0.00,,,0.00,Wunderground v.1.15,2013-01-16 08:00:00,
2013-01-16 03:06:00,68.9,68.9,29.94,SSW,202,3.0,6.0,100,0.00,,,0.00,Wunderground v.1.15,2013-01-16 08:06:00,
2013-01-16 03:12:00,68.8,68.8,29.94,SSW,206,2.0,3.0,100,0.00,,,0.00,Wunderground v.1.15,2013-01-16 08:12:00,
2013-01-16 03:18:00,68.9,68.9,29.95,SSW,203,2.0,5.0,100,0.00,,,0.00,Wunderground v.1.15,2013-01-16 08:18:00,
2013-01-16 03:24:00,68.8,68.8,29.95,SSW,209,2.0,6.0,100,0.00,,,0.00,Wunderground v.1.15,2013-01-16 08:24:00,
2013-01-16 03:30:00,69.1,69.1,29.95,SSW,210,2.0,2.0,100,0.00,,,0.00,Wunderground v.1.15,2013-01-16 08:30:00,
2013-01-16 03:36:00,69.1,69.1,29.95,South,184,2.0,3.0,100,0.00,,,0.00,Wunderground v.1.15,2013-01-16 08:36:00,
2013-01-16 03:42:00,69.3,69.3,29.95,SSW,208,2.0,6.0,100,0.00,,,0.00,Wunderground v.1.15,2013-01-16 08:42:00,
2013-01-16 03:48:00,69.4,69.4,29.94,SSW,212,3.0,6.0,100,0.00,,,0.00,Wunderground v.1.15,2013-01-16 08:48:00,
2013-01-16 03:54:00,69.4,69.4,29.94,SSW,213,3.0,5.0,100,0.00,,,0.00,Wunderground v.1.15,2013-01-16 08:54:00,
2013-01-16 04:00:00,69.4,69.4,29.94,SW,217,4.0,7.0,100,0.00,,,0.00,Wunderground v.1.15,2013-01-16 09:00:00,
2013-01-16 04:06:00,69.4,69.4,29.94,SSW,212,4.0,7.0,100,0.00,,,0.00,Wunderground v.1.15,2013-01-16 09:06:00,
2013-01-16 04:12:00,69.4,69.4,29.94,WSW,239,5.0,5.0,100,0.00,,,0.00,Wunderground v.1.15,2013-01-16 09:12:00,
2013-01-16 04:18:00,69.6,69.6,29.94,SW,224,5.0,9.0,100,0.00,,,0.00,Wunderground v.1.15,2013-01-16 09:18:00,
2013-01-16 04:24:00,69.6,-99.9,29.94,SW,216,4.0,6.0,255,0.00,,,0.00,Wunderground v.1.15,2013-01-16 09:24:00,
2013-01-16 04:30:00,69.4,69.4,29.94,WSW,247,4.0,5.0,100,0.00,,,0.00,Wunderground v.1.15,2013-01-16 09:30:00,
2013-01-16 04:36:00,69.6,69.6,29.94,SW,222,4.0,7.0,100,0.00,,,0.00,Wunderground v.1.15,2013-01-16 09:36:00,
2013-01-16 04:42:00,69.6,69.6,29.94,SW,216,5.0,6.0,100,0.00,,,0.00,Wunderground v.1.15,2013-01-16 09:42:00,
2013-01-16 04:48:00,69.6,69.6,29.94,WSW,241,5.0,10.0,100,0.00,,,0.00,Wunderground v.1.15,2013-01-16 09:48:00,
2013-01-16 04:54:00,69.4,69.4,29.94,WSW,256,5.0,8.0,100,0.00,,,0.00,Wunderground v.1.15,2013-01-16 09:54:00,
2013-01-16 05:00:00,69.3,69.3,29.94,SW,230,5.0,5.0,100,0.00,,,0.00,Wunderground v.1.15,2013-01-16 10:00:00,
2013-01-16 05:06:00,69.1,69.1,29.94,SW,229,5.0,5.0,100,0.00,,,0.00,Wunderground v.1.15,2013-01-16 10:06:00,
2013-01-16 05:12:00,68.9,68.9,29.94,SW,224,5.0,5.0,100,0.00,,,0.00,Wunderground v.1.15,2013-01-16 10:12:00,
2013-01-16 05:18:00,68.8,68.8,29.93,West,270,5.0,9.0,100,0.00,,,0.00,Wunderground v.1.15,2013-01-16 10:18:00,
2013-01-16 05:24:00,68.8,68.8,29.93,SW,220,6.0,8.0,100,0.00,,,0.00,Wunderground v.1.15,2013-01-16 10:24:00,
2013-01-16 05:30:00,68.6,68.6,29.94,West,277,5.0,6.0,100,0.00,,,0.00,Wunderground v.1.15,2013-01-16 10:30:00,
2013-01-16 05:36:00,68.4,68.4,29.94,WSW,241,7.0,10.0,100,0.00,,,0.00,Wunderground v.1.15,2013-01-16 10:36:00,
2013-01-16 05:42:00,68.4,68.4,29.94,SW,216,6.0,7.0,100,0.00,,,0.00,Wunderground v.1.15,2013-01-16 10:42:00,
2013-01-16 05:48:00,68.4,68.4,29.93,WSW,250,6.0,7.0,100,0.00,,,0.00,Wunderground v.1.15,2013-01-16 10:48:00,
2013-01-16 05:54:00,68.3,68.3,29.93,SW,220,5.0,11.0,100,0.00,,,0.00,Wunderground v.1.15,2013-01-16 10:54:00,
2013-01-16 06:00:00,68.4,68.4,29.94,West,261,6.0,6.0,100,0.00,,,0.00,Wunderground v.1.15,2013-01-16 11:00:00,
2013-01-16 06:06:00,68.1,68.1,29.94,SSW,208,5.0,7.0,100,0.00,,,0.00,Wunderground v.1.15,2013-01-16 11:06:00,
2013-01-16 06:12:00,68.1,68.1,29.94,SSW,203,5.0,9.0,100,0.00,,,0.00,Wunderground v.1.15,2013-01-16 11:12:00,
2013-01-16 06:18:00,68.3,68.3,29.94,West,263,5.0,9.0,100,0.00,,,0.00,Wunderground v.1.15,2013-01-16 11:18:00,
2013-01-16 06:24:00,68.3,68.3,29.94,SW,216,5.0,10.0,100,0.00,,,0.00,Wunderground v.1.15,2013-01-16 11:24:00,
2013-01-16 06:30:00,68.1,68.1,29.94,WSW,254,6.0,6.0,100,0.00,,,0.00,Wunderground v.1.15,2013-01-16 11:30:00,
2013-01-16 06:36:00,68.1,68.1,29.94,SW,216,6.0,10.0,100,0.00,,,0.00,Wunderground v.1.15,2013-01-16 11:36:00,
2013-01-16 06:42:00,68.3,68.3,29.94,SW,230,7.0,7.0,100,0.00,,,0.00,Wunderground v.1.15,2013-01-16 11:42:00,
2013-01-16 06:48:00,67.9,67.9,29.94,SSW,212,6.0,7.0,100,0.00,,,0.00,Wunderground v.1.15,2013-01-16 11:48:00,
2013-01-16 06:54:00,67.8,67.8,29.94,WSW,257,6.0,6.0,100,0.00,,,0.00,Wunderground v.1.15,2013-01-16 11:54:00,
2013-01-16 07:00:00,67.4,67.4,29.95,West,267,6.0,11.0,100,0.00,,,0.00,Wunderground v.1.15,2013-01-16 12:00:00,
2013-01-16 07:06:00,67.3,67.3,29.95,WSW,244,7.0,11.0,100,0.00,,,0.00,Wunderground v.1.15,2013-01-16 12:06:00,
2013-01-16 07:12:00,67.3,67.3,29.95,SSE,164,6.0,7.0,100,0.00,,,0.00,Wunderground v.1.15,2013-01-16 12:12:00,
2013-01-16 07:18:00,67.3,67.3,29.95,SSE,158,6.0,12.0,100,0.00,,,0.00,Wunderground v.1.15,2013-01-16 12:18:00,
2013-01-16 07:24:00,66.9,66.9,29.95,SSW,202,4.0,5.0,100,0.00,,,0.00,Wunderground v.1.15,2013-01-16 12:24:00,
2013-01-16 07:30:00,66.8,66.8,29.95,WSW,243,5.0,5.0,100,0.00,,,0.00,Wunderground v.1.15,2013-01-16 12:30:00,
2013-01-16 07:36:00,66.6,66.6,29.95,SW,220,6.0,7.0,100,0.00,,,0.00,Wunderground v.1.15,2013-01-16 12:36:00,
2013-01-16 07:42:00,66.6,66.6,29.95,SW,227,6.0,9.0,100,0.00,,,0.00,Wunderground v.1.15,2013-01-16 12:42:00,
2013-01-16 07:48:00,66.8,66.8,29.95,SW,215,7.0,13.0,100,0.00,,,0.00,Wunderground v.1.15,2013-01-16 12:48:00,
2013-01-16 07:54:00,66.9,66.9,29.95,SSW,205,8.0,16.0,100,0.00,,,0.00,Wunderground v.1.15,2013-01-16 12:54:00,
2013-01-16 08:00:00,67.3,67.3,29.96,WSW,241,8.0,8.0,100,0.00,,,0.00,Wunderground v.1.15,2013-01-16 13:00:00,
2013-01-16 08:06:00,67.4,67.4,29.96,West,265,8.0,8.0,100,0.00,,,0.00,Wunderground v.1.15,2013-01-16 13:06:00,
2013-01-16 08:12:00,67.9,67.9,29.96,WSW,253,8.0,10.0,100,0.00,,,0.00,Wunderground v.1.15,2013-01-16 13:12:00,
2013-01-16 08:18:00,68.1,68.1,29.96,SW,230,7.0,10.0,100,0.00,,,0.00,Wunderground v.1.15,2013-01-16 13:18:00,
2013-01-16 08:24:00,68.1,68.1,29.96,SW,236,6.0,11.0,100,0.00,,,0.00,Wunderground v.1.15,2013-01-16 13:24:00,
2013-01-16 08:30:00,68.3,68.3,29.97,WSW,237,8.0,8.0,100,0.00,,,0.00,Wunderground v.1.15,2013-01-16 13:30:00,
2013-01-16 08:36:00,68.6,68.6,29.97,WSW,243,8.0,9.0,100,0.00,,,0.00,Wunderground v.1.15,2013-01-16 13:36:00,
2013-01-16 08:42:00,68.9,68.9,29.97,SW,236,8.0,11.0,100,0.00,,,0.00,Wunderground v.1.15,2013-01-16 13:42:00,
2013-01-16 08:48:00,69.3,69.3,29.97,SW,223,7.0,13.0,100,0.00,,,0.00,Wunderground v.1.15,2013-01-16 13:48:00,
2013-01-16 08:54:00,69.4,69.4,29.97,SW,219,8.0,14.0,100,0.00,,,0.00,Wunderground v.1.15,2013-01-16 13:54:00,
2013-01-16 09:00:00,69.4,69.4,29.97,SW,224,8.0,10.0,100,0.00,,,0.00,Wunderground v.1.15,2013-01-16 14:00:00,
2013-01-16 09:06:00,69.6,69.6,29.97,WSW,247,7.0,13.0,100,0.00,,,0.00,Wunderground v.1.15,2013-01-16 14:06:00,
2013-01-16 09:12:00,69.8,69.8,29.97,SW,220,7.0,13.0,100,0.00,,,0.00,Wunderground v.1.15,2013-01-16 14:12:00,
2013-01-16 09:18:00,70.1,70.1,29.97,SW,232,7.0,17.0,100,0.00,,,0.00,Wunderground v.1.15,2013-01-16 14:18:00,
2013-01-16 09:24:00,70.4,70.1,29.97,SW,233,9.0,9.0,99,0.00,,,0.00,Wunderground v.1.15,2013-01-16 14:24:00,
2013-01-16 09:30:00,70.8,70.2,29.98,SW,226,10.0,10.0,98,0.00,,,0.00,Wunderground v.1.15,2013-01-16 14:30:00,
2013-01-16 09:36:00,71.3,70.4,29.98,SSW,209,7.0,10.0,97,0.00,,,0.00,Wunderground v.1.15,2013-01-16 14:36:00,
2013-01-16 09:42:00,71.5,70.3,29.98,WSW,239,8.0,12.0,96,0.00,,,0.00,Wunderground v.1.15,2013-01-16 14:42:00,
2013-01-16 09:48:00,71.6,70.4,29.98,SW,234,10.0,13.0,96,0.00,,,0.00,Wunderground v.1.15,2013-01-16 14:48:00,
2013-01-16 09:54:00,72.1,70.6,29.98,SW,234,8.0,12.0,95,0.00,,,0.00,Wunderground v.1.15,2013-01-16 14:54:00,
2013-01-16 10:00:00,72.8,71.0,29.98,SSW,192,6.0,10.0,94,0.00,,,0.00,Wunderground v.1.15,2013-01-16 15:00:00,
2013-01-16 10:06:00,73.0,70.5,29.98,SW,222,7.0,10.0,92,0.00,,,0.00,Wunderground v.1.15,2013-01-16 15:06:00,
2013-01-16 10:12:00,73.2,70.7,29.98,WSW,244,7.0,10.0,92,0.00,,,0.00,Wunderground v.1.15,2013-01-16 15:12:00,
2013-01-16 10:18:00,73.5,70.7,29.98,WSW,241,7.0,10.0,91,0.00,,,0.00,Wunderground v.1.15,2013-01-16 15:18:00,
2013-01-16 10:24:00,73.5,70.7,29.98,SW,222,7.0,11.0,91,0.00,,,0.00,Wunderground v.1.15,2013-01-16 15:24:00,
2013-01-16 10:30:00,73.7,70.9,29.97,SW,222,6.0,6.0,91,0.00,,,0.00,Wunderground v.1.15,2013-01-16 15:30:00,
2013-01-16 10:36:00,73.5,70.7,29.97,WSW,241,5.0,6.0,91,0.00,,,0.00,Wunderground v.1.15,2013-01-16 15:36:00,
2013-01-16 10:42:00,73.5,70.4,29.97,SW,232,6.0,11.0,90,0.00,,,0.00,Wunderground v.1.15,2013-01-16 15:42:00,
2013-01-16 10:48:00,73.5,70.7,29.97,West,261,6.0,11.0,91,0.00,,,0.00,Wunderground v.1.15,2013-01-16 15:48:00,
2013-01-16 10:54:00,74.0,70.9,29.97,South,174,4.0,6.0,90,0.00,,,0.00,Wunderground v.1.15,2013-01-16 15:54:00,
2013-01-16 11:00:00,74.4,70.9,29.96,NW,305,4.0,4.0,89,0.00,,,0.00,Wunderground v.1.15,2013-01-16 16:00:00,
2013-01-16 11:06:00,74.4,70.6,29.96,SSW,199,5.0,7.0,88,0.00,,,0.00,Wunderground v.1.15,2013-01-16 16:06:00,
2013-01-16 11:12:00,74.4,70.3,29.96,SSW,193,4.0,10.0,87,0.00,,,0.00,Wunderground v.1.15,2013-01-16 16:12:00,
2013-01-16 11:18:00,74.2,70.4,29.96,SSW,195,5.0,10.0,88,0.00,,,0.00,Wunderground v.1.15,2013-01-16 16:18:00,
2013-01-16 11:24:00,74.0,70.2,29.96,SSW,210,4.0,7.0,88,0.00,,,0.00,Wunderground v.1.15,2013-01-16 16:24:00,
2013-01-16 11:30:00,74.4,70.9,29.95,SW,224,5.0,5.0,89,0.00,,,0.00,Wunderground v.1.15,2013-01-16 16:30:00,
2013-01-16 11:36:00,74.9,70.4,29.95,SSW,205,4.0,10.0,86,0.00,,,0.00,Wunderground v.1.15,2013-01-16 16:36:00,
2013-01-16 11:42:00,74.6,70.1,29.95,SW,215,5.0,5.0,86,0.00,,,0.00,Wunderground v.1.15,2013-01-16 16:42:00,
2013-01-16 11:48:00,74.7,70.2,29.95,SW,230,5.0,8.0,86,0.00,,,0.00,Wunderground v.1.15,2013-01-16 16:48:00,
2013-01-16 11:54:00,74.4,70.3,29.95,SW,216,6.0,11.0,87,0.00,,,0.00,Wunderground v.1.15,2013-01-16 16:54:00,
2013-01-16 12:00:00,74.2,70.1,29.94,SSW,202,7.0,7.0,87,0.00,,,0.00,Wunderground v.1.15,2013-01-16 17:00:00,
2013-01-16 12:06:00,74.7,70.2,29.94,South,191,5.0,7.0,86,0.00,,,0.00,Wunderground v.1.15,2013-01-16 17:06:00,
2013-01-16 12:12:00,75.4,70.6,29.94,SSW,195,5.0,8.0,85,0.00,,,0.00,Wunderground v.1.15,2013-01-16 17:12:00,
2013-01-16 12:18:00,75.4,69.9,29.93,SSW,192,5.0,8.0,83,0.00,,,0.00,Wunderground v.1.15,2013-01-16 17:18:00,
2013-01-16 12:24:00,75.8,70.3,29.93,SSW,196,5.0,8.0,83,0.00,,,0.00,Wunderground v.1.15,2013-01-16 17:24:00,
2013-01-16 12:30:00,75.6,70.1,29.93,SW,226,6.0,7.0,83,0.00,,,0.00,Wunderground v.1.15,2013-01-16 17:30:00,
2013-01-16 12:36:00,75.4,69.5,29.93,SW,220,6.0,7.0,82,0.00,,,0.00,Wunderground v.1.15,2013-01-16 17:36:00,
2013-01-16 12:42:00,75.8,70.3,29.93,WSW,240,6.0,6.0,83,0.00,,,0.00,Wunderground v.1.15,2013-01-16 17:42:00,
2013-01-16 12:48:00,75.8,69.9,29.92,WSW,240,6.0,11.0,82,0.00,,,0.00,Wunderground v.1.15,2013-01-16 17:48:00,
2013-01-16 12:54:00,75.6,69.7,29.92,SW,229,7.0,9.0,82,0.00,,,0.00,Wunderground v.1.15,2013-01-16 17:54:00,
2013-01-16 13:00:00,75.3,69.8,29.91,South,182,6.0,6.0,83,0.00,,,0.00,Wunderground v.1.15,2013-01-16 18:00:00,
2013-01-16 13:06:00,74.6,70.1,29.91,South,178,6.0,6.0,86,0.00,,,0.00,Wunderground v.1.15,2013-01-16 18:06:00,
2013-01-16 13:12:00,74.4,69.9,29.91,SSW,202,5.0,6.0,86,0.00,,,0.00,Wunderground v.1.15,2013-01-16 18:12:00,
2013-01-16 13:18:00,74.2,69.7,29.91,SSW,209,5.0,10.0,86,0.00,,,0.00,Wunderground v.1.15,2013-01-16 18:18:00,
2013-01-16 13:24:00,74.2,70.1,29.91,South,181,5.0,6.0,87,0.00,,,0.00,Wunderground v.1.15,2013-01-16 18:24:00,
2013-01-16 13:30:00,74.6,70.1,29.90,WSW,244,5.0,5.0,86,0.00,,,0.00,Wunderground v.1.15,2013-01-16 18:30:00,
2013-01-16 13:36:00,74.2,69.7,29.90,SSW,208,6.0,7.0,86,0.00,,,0.00,Wunderground v.1.15,2013-01-16 18:36:00,
2013-01-16 13:42:00,73.9,69.8,29.90,SW,224,6.0,8.0,87,0.00,,,0.00,Wunderground v.1.15,2013-01-16 18:42:00,
2013-01-16 13:48:00,73.9,69.8,29.90,SW,229,6.0,10.0,87,0.00,,,0.00,Wunderground v.1.15,2013-01-16 18:48:00,
2013-01-16 13:54:00,73.9,69.8,29.90,SSW,205,6.0,7.0,87,0.00,,,0.00,Wunderground v.1.15,2013-01-16 18:54:00,
2013-01-16 14:00:00,74.0,69.5,29.90,SW,234,6.0,12.0,86,0.00,,,0.00,Wunderground v.1.15,2013-01-16 19:00:00,
2013-01-16 14:06:00,74.2,69.4,29.90,SW,220,7.0,12.0,85,0.00,,,0.00,Wunderground v.1.15,2013-01-16 19:06:00,
2013-01-16 14:12:00,74.6,69.4,29.90,SW,232,6.0,7.0,84,0.00,,,0.00,Wunderground v.1.15,2013-01-16 19:12:00,
2013-01-16 14:18:00,74.6,69.4,29.90,SSW,213,6.0,7.0,84,0.00,,,0.00,Wunderground v.1.15,2013-01-16 19:18:00,
2013-01-16 14:24:00,74.9,69.7,29.90,West,280,7.0,8.0,84,0.00,,,0.00,Wunderground v.1.15,2013-01-16 19:24:00,
2013-01-16 14:30:00,75.1,69.6,29.89,South,189,6.0,6.0,83,0.00,,,0.00,Wunderground v.1.15,2013-01-16 19:30:00,
2013-01-16 14:36:00,75.1,69.6,29.89,SSW,212,6.0,16.0,83,0.00,,,0.00,Wunderground v.1.15,2013-01-16 19:36:00,
2013-01-16 14:42:00,75.1,69.6,29.89,WSW,250,6.0,9.0,83,0.00,,,0.00,Wunderground v.1.15,2013-01-16 19:42:00,
2013-01-16 14:48:00,75.1,69.6,29.89,SW,234,6.0,12.0,83,0.00,,,0.00,Wunderground v.1.15,2013-01-16 19:48:00,
2013-01-16 14:54:00,74.7,69.5,29.89,South,182,6.0,12.0,84,0.00,,,0.00,Wunderground v.1.15,2013-01-16 19:54:00,
2013-01-16 15:00:00,74.9,69.7,29.89,SSE,164,6.0,6.0,84,0.00,,,0.00,Wunderground v.1.15,2013-01-16 20:00:00,
2013-01-16 15:06:00,74.7,69.2,29.89,SSW,210,6.0,11.0,83,0.00,,,0.00,Wunderground v.1.15,2013-01-16 20:06:00,
2013-01-16 15:12:00,74.7,69.2,29.89,SSW,198,6.0,9.0,83,0.00,,,0.00,Wunderground v.1.15,2013-01-16 20:12:00,
2013-01-16 15:18:00,74.9,69.0,29.88,SSW,196,6.0,13.0,82,0.00,,,0.00,Wunderground v.1.15,2013-01-16 20:18:00,
2013-01-16 15:24:00,74.7,68.5,29.88,SW,217,7.0,13.0,81,0.00,,,0.00,Wunderground v.1.15,2013-01-16 20:24:00,
2013-01-16 15:30:00,74.9,68.7,29.88,SSW,202,6.0,9.0,81,0.00,,,0.00,Wunderground v.1.15,2013-01-16 20:30:00,
2013-01-16 15:36:00,75.1,68.9,29.88,SW,226,5.0,13.0,81,0.00,,,0.00,Wunderground v.1.15,2013-01-16 20:36:00,
2013-01-16 15:42:00,74.6,69.4,29.88,SSW,212,6.0,6.0,84,0.00,,,0.00,Wunderground v.1.15,2013-01-16 20:42:00,
2013-01-16 15:48:00,74.0,69.2,29.88,SSW,206,6.0,6.0,85,0.00,,,0.00,Wunderground v.1.15,2013-01-16 20:48:00,
2013-01-16 15:54:00,73.2,69.1,29.88,SW,215,7.0,8.0,87,0.00,,,0.00,Wunderground v.1.15,2013-01-16 20:54:00,
2013-01-16 16:00:00,72.7,68.9,29.89,SW,223,7.0,9.0,88,0.00,,,0.00,Wunderground v.1.15,2013-01-16 21:00:00,
2013-01-16 16:06:00,72.3,68.5,29.89,WSW,253,7.0,9.0,88,0.00,,,0.00,Wunderground v.1.15,2013-01-16 21:06:00,
2013-01-16 16:12:00,72.3,68.5,29.89,West,274,7.0,8.0,88,0.00,,,0.00,Wunderground v.1.15,2013-01-16 21:12:00,
2013-01-16 16:18:00,72.3,68.5,29.89,South,186,4.0,12.0,88,0.00,,,0.00,Wunderground v.1.15,2013-01-16 21:18:00,
2013-01-16 16:24:00,72.0,68.6,29.89,WSW,243,6.0,6.0,89,0.00,,,0.00,Wunderground v.1.15,2013-01-16 21:24:00,
2013-01-16 16:30:00,72.0,68.6,29.89,SW,222,7.0,7.0,89,0.00,,,0.00,Wunderground v.1.15,2013-01-16 21:30:00,
2013-01-16 16:36:00,71.8,68.4,29.89,SW,216,6.0,7.0,89,0.00,,,0.00,Wunderground v.1.15,2013-01-16 21:36:00,
2013-01-16 16:42:00,71.8,68.4,29.89,SW,236,6.0,6.0,89,0.00,,,0.00,Wunderground v.1.15,2013-01-16 21:42:00,
2013-01-16 16:48:00,71.6,68.2,29.89,SSW,203,6.0,11.0,89,0.00,,,0.00,Wunderground v.1.15,2013-01-16 21:48:00,
2013-01-16 16:54:00,71.3,68.2,29.89,WSW,240,7.0,15.0,90,0.00,,,0.00,Wunderground v.1.15,2013-01-16 21:54:00,
2013-01-16 17:00:00,71.1,68.3,29.90,SW,230,8.0,8.0,91,0.00,,,0.00,Wunderground v.1.15,2013-01-16 22:00:00,
2013-01-16 17:06:00,70.8,68.0,29.90,SW,232,9.0,9.0,91,0.00,,,0.00,Wunderground v.1.15,2013-01-16 22:06:00,
2013-01-16 17:12:00,70.4,68.0,29.90,West,274,7.0,8.0,92,0.00,,,0.00,Wunderground v.1.15,2013-01-16 22:12:00,
2013-01-16 17:18:00,70.3,68.2,29.90,SSW,203,9.0,16.0,93,0.00,,,0.00,Wunderground v.1.15,2013-01-16 22:18:00,
2013-01-16 17:24:00,69.9,68.1,29.90,SW,230,8.0,9.0,94,0.00,,,0.00,Wunderground v.1.15,2013-01-16 22:24:00,
2013-01-16 17:31:00,69.6,68.1,29.90,SW,223,4.0,4.0,95,0.00,,,0.00,Wunderground v.1.15,2013-01-16 22:31:00,
2013-01-16 17:36:00,69.3,68.1,29.90,SW,234,4.0,4.0,96,0.00,,,0.00,Wunderground v.1.15,2013-01-16 22:36:00,
2013-01-16 17:42:00,68.9,68.0,29.90,SW,223,3.0,4.0,97,0.00,,,0.00,Wunderground v.1.15,2013-01-16 22:42:00,
2013-01-16 17:48:00,68.8,68.2,29.91,WSW,241,4.0,6.0,98,0.00,,,0.00,Wunderground v.1.15,2013-01-16 22:48:00,
2013-01-16 17:54:00,68.9,68.6,29.91,WSW,240,4.0,6.0,99,0.00,,,0.00,Wunderground v.1.15,2013-01-16 22:54:00,
2013-01-16 18:00:00,68.8,68.5,29.91,SSW,200,3.0,4.0,99,0.00,,,0.00,Wunderground v.1.15,2013-01-16 23:00:00,
2013-01-16 18:06:00,68.6,68.6,29.91,WSW,256,3.0,4.0,100,0.00,,,0.00,Wunderground v.1.15,2013-01-16 23:06:00,
2013-01-16 18:12:00,68.6,68.6,29.91,SSW,209,3.0,7.0,100,0.00,,,0.00,Wunderground v.1.15,2013-01-16 23:12:00,
2013-01-16 18:18:00,68.6,68.6,29.91,SW,217,4.0,7.0,100,0.00,,,0.00,Wunderground v.1.15,2013-01-16 23:18:00,
2013-01-16 18:24:00,68.4,68.4,29.91,WSW,243,3.0,7.0,100,0.00,,,0.00,Wunderground v.1.15,2013-01-16 23:24:00,
2013-01-16 18:30:00,68.4,68.4,29.91,SW,224,3.0,3.0,100,0.00,,,0.00,Wunderground v.1.15,2013-01-16 23:30:00,
2013-01-16 18:36:00,68.4,68.4,29.91,SW,216,3.0,6.0,100,0.00,,,0.00,Wunderground v.1.15,2013-01-16 23:36:00,
2013-01-16 18:42:00,68.4,68.4,29.91,SSW,210,3.0,3.0,100,0.00,,,0.00,Wunderground v.1.15,2013-01-16 23:42:00,
2013-01-16 18:48:00,68.4,68.4,29.91,SSW,202,3.0,5.0,100,0.00,,,0.00,Wunderground v.1.15,2013-01-16 23:48:00,
2013-01-16 18:54:00,68.4,68.4,29.91,SW,219,4.0,6.0,100,0.00,,,0.00,Wunderground v.1.15,2013-01-16 23:54:00,
2013-01-16 19:00:00,68.4,68.4,29.91,SSW,198,4.0,4.0,100,0.00,,,0.00,Wunderground v.1.15,2013-01-17 00:00:00,
2013-01-16 19:06:00,68.4,68.4,29.91,SSW,209,4.0,7.0,100,0.00,,,0.00,Wunderground v.1.15,2013-01-17 00:06:00,
2013-01-16 19:12:00,68.6,68.6,29.91,SW,219,4.0,7.0,100,0.00,,,0.00,Wunderground v.1.15,2013-01-17 00:12:00,
2013-01-16 19:18:00,68.8,68.8,29.92,WSW,247,3.0,7.0,100,0.00,,,0.00,Wunderground v.1.15,2013-01-17 00:18:00,
2013-01-16 19:24:00,68.6,68.6,29.92,WSW,258,2.0,5.0,100,0.00,,,0.00,Wunderground v.1.15,2013-01-17 00:24:00,
2013-01-16 19:30:00,68.6,68.6,29.92,SW,236,3.0,5.0,100,0.00,,,0.00,Wunderground v.1.15,2013-01-17 00:30:00,
2013-01-16 19:36:00,68.6,68.6,29.92,WSW,256,3.0,5.0,100,0.00,,,0.00,Wunderground v.1.15,2013-01-17 00:36:00,
2013-01-16 19:42:00,68.4,68.4,29.92,SW,226,3.0,3.0,100,0.00,,,0.00,Wunderground v.1.15,2013-01-17 00:42:00,
2013-01-16 19:48:00,68.6,68.6,29.92,SW,217,4.0,6.0,100,0.00,,,0.00,Wunderground v.1.15,2013-01-17 00:48:00,
2013-01-16 19:54:00,68.8,68.8,29.92,SW,224,4.0,6.0,100,0.00,,,0.00,Wunderground v.1.15,2013-01-17 00:54:00,
2013-01-16 20:00:00,68.6,68.6,29.92,WSW,239,3.0,6.0,100,0.00,,,0.00,Wunderground v.1.15,2013-01-17 01:00:00,
2013-01-16 20:06:00,68.8,68.8,29.92,SW,222,3.0,7.0,100,0.00,,,0.00,Wunderground v.1.15,2013-01-17 01:06:00,
2013-01-16 20:12:00,68.8,68.8,29.92,SW,222,3.0,5.0,100,0.00,,,0.00,Wunderground v.1.15,2013-01-17 01:12:00,
2013-01-16 20:18:00,68.6,68.6,29.92,SW,215,3.0,6.0,100,0.00,,,0.00,Wunderground v.1.15,2013-01-17 01:18:00,
2013-01-16 20:24:00,68.8,68.8,29.92,WSW,239,3.0,3.0,100,0.00,,,0.00,Wunderground v.1.15,2013-01-17 01:24:00,
2013-01-16 20:30:00,68.8,68.8,29.92,SW,216,3.0,4.0,100,0.00,,,0.00,Wunderground v.1.15,2013-01-17 01:30:00,
2013-01-16 20:36:00,68.6,68.6,29.92,SSW,198,4.0,4.0,100,0.00,,,0.00,Wunderground v.1.15,2013-01-17 01:36:00,
2013-01-16 20:42:00,68.8,68.8,29.92,SSW,213,3.0,3.0,100,0.00,,,0.00,Wunderground v.1.15,2013-01-17 01:42:00,
2013-01-16 20:48:00,68.9,68.9,29.92,SSW,212,4.0,7.0,100,0.00,,,0.00,Wunderground v.1.15,2013-01-17 01:48:00,
2013-01-16 20:54:00,68.8,68.8,29.92,SW,224,3.0,4.0,100,0.00,,,0.00,Wunderground v.1.15,2013-01-17 01:54:00,
2013-01-16 21:00:00,68.6,68.6,29.92,WSW,239,4.0,5.0,100,0.00,,,0.00,Wunderground v.1.15,2013-01-17 02:00:00,
2013-01-16 21:06:00,68.6,68.6,29.92,WSW,239,4.0,5.0,100,0.00,,,0.00,Wunderground v.1.15,2013-01-17 02:06:00,
2013-01-16 21:12:00,68.8,68.8,29.92,SSW,210,3.0,3.0,100,0.00,,,0.00,Wunderground v.1.15,2013-01-17 02:12:00,
2013-01-16 21:18:00,68.9,68.9,29.92,SW,216,3.0,5.0,100,0.00,,,0.00,Wunderground v.1.15,2013-01-17 02:18:00,
2013-01-16 21:24:00,68.9,68.9,29.92,South,189,4.0,5.0,100,0.00,,,0.00,Wunderground v.1.15,2013-01-17 02:24:00,
2013-01-16 21:30:00,69.1,69.1,29.92,WSW,241,4.0,4.0,100,0.00,,,0.00,Wunderground v.1.15,2013-01-17 02:30:00,
2013-01-16 21:36:00,69.1,69.1,29.92,West,267,4.0,4.0,100,0.00,,,0.00,Wunderground v.1.15,2013-01-17 02:36:00,
2013-01-16 21:42:00,69.3,69.3,29.92,WSW,251,3.0,6.0,100,0.00,,,0.00,Wunderground v.1.15,2013-01-17 02:42:00,
2013-01-16 21:48:00,69.3,69.3,29.92,SSW,199,3.0,6.0,100,0.00,,,0.00,Wunderground v.1.15,2013-01-17 02:48:00,
2013-01-16 21:54:00,69.3,69.3,29.92,SW,220,3.0,11.0,100,0.00,,,0.00,Wunderground v.1.15,2013-01-17 02:54:00,
2013-01-16 22:00:00,69.4,69.4,29.92,WSW,237,5.0,5.0,100,0.00,,,0.00,Wunderground v.1.15,2013-01-17 03:00:00,
2013-01-16 22:06:00,69.3,69.3,29.92,SSW,205,4.0,6.0,100,0.00,,,0.00,Wunderground v.1.15,2013-01-17 03:06:00,
2013-01-16 22:12:00,69.3,69.3,29.92,South,174,4.0,4.0,100,0.00,,,0.00,Wunderground v.1.15,2013-01-17 03:12:00,
2013-01-16 22:18:00,69.3,69.3,29.91,SW,219,4.0,6.0,100,0.00,,,0.00,Wunderground v.1.15,2013-01-17 03:18:00,
2013-01-16 22:24:00,69.3,69.3,29.91,SSW,206,5.0,5.0,100,0.00,,,0.00,Wunderground v.1.15,2013-01-17 03:24:00,
2013-01-16 22:30:00,69.3,69.3,29.91,South,191,5.0,5.0,100,0.00,,,0.00,Wunderground v.1.15,2013-01-17 03:30:00,
2013-01-16 22:36:00,69.3,69.3,29.91,SSW,212,5.0,6.0,100,0.00,,,0.00,Wunderground v.1.15,2013-01-17 03:36:00,
2013-01-16 22:42:00,69.4,69.4,29.91,SSW,213,5.0,5.0,100,0.00,,,0.00,Wunderground v.1.15,2013-01-17 03:42:00,
2013-01-16 22:48:00,69.6,69.3,29.90,SSW,212,5.0,7.0,99,0.00,,,0.00,Wunderground v.1.15,2013-01-17 03:48:00,
2013-01-16 22:54:00,69.6,68.7,29.90,SW,223,5.0,8.0,97,0.00,,,0.00,Wunderground v.1.15,2013-01-17 03:54:00,
2013-01-16 23:00:00,69.4,68.5,29.90,WSW,254,5.0,5.0,97,0.00,,,0.00,Wunderground v.1.15,2013-01-17 04:00:00,
2013-01-16 23:06:00,69.3,68.4,29.90,WSW,250,5.0,7.0,97,0.00,,,0.00,Wunderground v.1.15,2013-01-17 04:06:00,
2013-01-16 23:12:00,69.3,68.4,29.90,SSW,210,6.0,6.0,97,0.00,,,0.00,Wunderground v.1.15,2013-01-17 04:12:00,
2013-01-16 23:18:00,69.4,68.5,29.90,SW,232,8.0,22.0,97,0.00,,,0.00,Wunderground v.1.15,2013-01-17 04:18:00,
2013-01-16 23:24:00,69.4,68.2,29.90,SW,224,9.0,9.0,96,0.00,,,0.00,Wunderground v.1.15,2013-01-17 04:24:00,
2013-01-16 23:30:00,69.6,68.1,29.90,SW,222,9.0,9.0,95,0.00,,,0.00,Wunderground v.1.15,2013-01-17 04:30:00,
2013-01-16 23:36:00,69.8,68.0,29.90,SSW,210,9.0,10.0,94,0.00,,,0.00,Wunderground v.1.15,2013-01-17 04:36:00,
2013-01-16 23:42:00,69.8,68.0,29.90,WSW,258,9.0,10.0,94,0.00,,,0.00,Wunderground v.1.15,2013-01-17 04:42:00,
2013-01-16 23:48:00,69.9,68.4,29.90,SW,232,9.0,14.0,95,0.00,,,0.00,Wunderground v.1.15,2013-01-17 04:48:00,
2013-01-16 23:54:00,69.8,68.3,29.90,SW,219,9.0,10.0,95,0.00,,,0.00,Wunderground v.1.15,2013-01-17 04:54:00,